Terminal Aerodrome Forecast
Issued by NWS Midland/Odessa, TX

Home | Current Version | Previous Version | Text Only | Print | Product List | Glossary On
Versions: 1 2 3 4 5 6 7 8 9 10 11 12 13 14 15 16 17 18 19 20 21 22 23 24 25 26 27 28 29
000
FTUS44 KMAF 221600 AAA
TAFMAF
TAF AMD
KMAF 221611Z 2216/2312 09009KT P6SM BKN060
      TEMPO 2216/2218 6SM BR OVC015
     FM222000 13012KT P6SM BKN070=

USA.gov is the U.S. government's official web portal to all federal, state and local government web resources and services.